Time,TemperatureF,DewpointF,PressureIn,WindDirection,WindDirectionDegrees,WindSpeedMPH,WindSpeedGustMPH,Humidity,HourlyPrecipIn,Conditions,Clouds,dailyrainin,SoftwareType,DateUTC
2013-03-31 00:05:00,49.1,44.5,29.93,NNW,338,0.0,0.0,84,0.00,,,0.00,VWS V14.01,2013-03-31 05:05:00,
2013-03-31 00:10:00,49.1,44.5,29.93,NNW,338,0.0,0.0,84,0.00,,,0.00,VWS V14.01,2013-03-31 05:10:00,
2013-03-31 00:15:00,48.9,44.3,29.94,NNW,338,0.0,0.0,84,0.00,,,0.00,VWS V14.01,2013-03-31 05:15:00,
2013-03-31 00:20:00,48.7,44.1,29.94,NNW,338,0.0,0.0,84,0.00,,,0.00,VWS V14.01,2013-03-31 05:20:00,
2013-03-31 00:25:00,48.5,43.9,29.94,NNW,338,0.0,0.0,84,0.00,,,0.00,VWS V14.01,2013-03-31 05:25:00,
2013-03-31 00:30:00,48.4,43.8,29.95,NNW,338,0.0,0.0,84,0.00,,,0.00,VWS V14.01,2013-03-31 05:30:00,
2013-03-31 00:35:00,48.2,43.6,29.95,NNW,338,0.0,0.0,84,0.00,,,0.00,VWS V14.01,2013-03-31 05:35:00,
2013-03-31 00:45:00,47.8,43.2,29.95,NNW,338,0.0,0.0,84,0.00,,,0.00,VWS V14.01,2013-03-31 05:45:00,
2013-03-31 00:50:00,47.6,43.3,29.95,NNW,338,0.0,0.0,85,0.00,,,0.00,VWS V14.01,2013-03-31 05:50:00,
2013-03-31 00:55:00,47.6,43.3,29.96,NNW,338,0.0,0.0,85,0.00,,,0.00,VWS V14.01,2013-03-31 05:55:00,
2013-03-31 01:05:00,47.5,43.2,29.96,NNW,338,0.0,0.0,85,0.00,,,0.00,VWS V14.01,2013-03-31 06:05:00,
2013-03-31 01:10:00,47.5,43.2,29.95,NNW,338,0.0,0.0,85,0.00,,,0.00,VWS V14.01,2013-03-31 06:10:00,
2013-03-31 01:15:00,47.3,43.3,29.95,NNW,338,0.0,0.0,86,0.00,,,0.00,VWS V14.01,2013-03-31 06:15:00,
2013-03-31 01:20:00,47.3,43.3,29.95,NNW,338,0.0,0.0,86,0.00,,,0.00,VWS V14.01,2013-03-31 06:20:00,
2013-03-31 01:25:00,47.1,42.8,29.95,NNW,338,0.0,0.0,85,0.00,,,0.00,VWS V14.01,2013-03-31 06:25:00,
2013-03-31 01:30:00,47.1,42.8,29.95,NNW,338,0.0,0.0,85,0.00,,,0.00,VWS V14.01,2013-03-31 06:30:00,
2013-03-31 01:35:00,47.1,42.8,29.95,NNW,338,0.0,0.0,85,0.00,,,0.00,VWS V14.01,2013-03-31 06:35:00,
2013-03-31 01:40:00,46.9,42.6,29.96,NNW,338,0.0,0.0,85,0.00,,,0.00,VWS V14.01,2013-03-31 06:40:00,
2013-03-31 01:45:00,46.9,42.6,29.96,NNW,338,0.0,0.0,85,0.00,,,0.00,VWS V14.01,2013-03-31 06:45:00,
2013-03-31 01:50:00,46.9,42.6,29.96,NNW,338,0.0,0.0,85,0.00,,,0.00,VWS V14.01,2013-03-31 06:50:00,
2013-03-31 01:55:00,46.9,42.6,29.96,NNW,338,0.0,0.0,85,0.00,,,0.00,VWS V14.01,2013-03-31 06:55:00,
2013-03-31 02:05:00,47.1,43.1,29.97,NNW,338,0.0,0.0,86,0.00,,,0.00,VWS V14.01,2013-03-31 07:05:00,
2013-03-31 02:10:00,47.3,43.3,29.96,NNW,338,0.0,0.0,86,0.00,,,0.00,VWS V14.01,2013-03-31 07:10:00,
2013-03-31 02:15:00,47.5,43.5,29.97,NNW,338,0.0,0.0,86,0.00,,,0.00,VWS V14.01,2013-03-31 07:15:00,
2013-03-31 02:20:00,47.5,43.5,29.97,NNW,338,0.0,0.0,86,0.00,,,0.00,VWS V14.01,2013-03-31 07:20:00,
2013-03-31 02:25:00,47.6,43.6,29.96,NNW,338,0.0,0.0,86,0.00,,,0.00,VWS V14.01,2013-03-31 07:25:00,
2013-03-31 02:30:00,47.6,43.6,29.96,NNW,338,0.0,0.0,86,0.00,,,0.00,VWS V14.01,2013-03-31 07:30:00,
2013-03-31 02:35:00,47.6,43.6,29.97,NNW,338,0.0,0.0,86,0.00,,,0.00,VWS V14.01,2013-03-31 07:35:00,
2013-03-31 02:40:00,47.6,43.9,29.97,North,0,0.0,0.2,87,0.00,,,0.00,VWS V14.01,2013-03-31 07:40:00,
2013-03-31 02:45:00,47.6,43.9,29.98,NNW,338,0.0,0.0,87,0.00,,,0.00,VWS V14.01,2013-03-31 07:45:00,
2013-03-31 02:50:00,47.8,44.1,29.98,NW,315,0.0,0.0,87,0.00,,,0.00,VWS V14.01,2013-03-31 07:50:00,
2013-03-31 02:55:00,48.0,44.3,29.98,North,0,0.0,0.0,87,0.00,,,0.00,VWS V14.01,2013-03-31 07:55:00,
2013-03-31 03:05:00,48.4,45.0,29.98,North,0,0.9,1.6,88,0.00,,,0.00,VWS V14.01,2013-03-31 08:05:00,
2013-03-31 03:10:00,48.5,45.1,29.97,North,0,0.0,1.1,88,0.00,,,0.00,VWS V14.01,2013-03-31 08:10:00,
2013-03-31 03:15:00,48.7,45.6,29.98,NNW,338,1.1,1.8,89,0.00,,,0.00,VWS V14.01,2013-03-31 08:15:00,
2013-03-31 03:20:00,48.7,45.6,29.97,NNW,338,0.2,1.3,89,0.00,,,0.00,VWS V14.01,2013-03-31 08:20:00,
2013-03-31 03:25:00,48.7,45.6,29.97,NNW,338,0.7,1.1,89,0.00,,,0.00,VWS V14.01,2013-03-31 08:25:00,
2013-03-31 03:30:00,48.9,45.8,29.97,NNW,338,0.4,1.3,89,0.00,,,0.00,VWS V14.01,2013-03-31 08:30:00,
2013-03-31 03:35:00,48.7,45.6,29.97,WNW,292,0.4,0.4,89,0.00,,,0.00,VWS V14.01,2013-03-31 08:35:00,
2013-03-31 03:40:00,48.7,45.6,29.97,North,0,0.0,0.4,89,0.00,,,0.00,VWS V14.01,2013-03-31 08:40:00,
2013-03-31 03:45:00,48.7,45.6,29.97,North,0,0.0,0.9,89,0.00,,,0.00,VWS V14.01,2013-03-31 08:45:00,
2013-03-31 03:50:00,48.7,45.6,29.97,NNW,338,0.2,0.4,89,0.00,,,0.00,VWS V14.01,2013-03-31 08:50:00,
2013-03-31 03:55:00,48.7,45.6,29.97,NW,315,1.1,1.1,89,0.00,,,0.00,VWS V14.01,2013-03-31 08:55:00,
2013-03-31 04:05:00,48.5,45.4,29.96,North,0,0.0,0.7,89,0.00,,,0.00,VWS V14.01,2013-03-31 09:05:00,
2013-03-31 04:10:00,48.5,45.4,29.96,WNW,292,0.9,0.9,89,0.00,,,0.00,VWS V14.01,2013-03-31 09:10:00,
2013-03-31 04:15:00,48.5,45.4,29.96,NNW,338,1.1,1.1,89,0.00,,OVC075,0.00,VWS V14.01,2013-03-31 09:15:00,
2013-03-31 04:25:00,48.4,45.0,29.95,NNW,338,1.3,1.8,88,0.00,,OVC075,0.00,VWS V14.01,2013-03-31 09:25:00,
2013-03-31 04:30:00,48.4,45.0,29.94,NW,315,1.3,2.7,88,0.00,,OVC075,0.00,VWS V14.01,2013-03-31 09:30:00,
2013-03-31 04:35:00,48.4,45.0,29.95,NNW,338,0.4,2.5,88,0.00,,OVC075,0.00,VWS V14.01,2013-03-31 09:35:00,
2013-03-31 04:40:00,48.4,45.0,29.95,NNW,338,1.1,1.3,88,0.00,,OVC075,0.00,VWS V14.01,2013-03-31 09:40:00,
2013-03-31 04:45:00,48.5,45.1,29.95,North,0,0.7,1.1,88,0.00,,OVC075,0.00,VWS V14.01,2013-03-31 09:45:00,
2013-03-31 04:50:00,48.5,44.8,29.96,ENE,68,0.4,1.3,87,0.00,,OVC075,0.00,VWS V14.01,2013-03-31 09:50:00,
2013-03-31 04:55:00,48.5,44.8,29.96,North,0,0.4,2.5,87,0.00,,OVC075,0.00,VWS V14.01,2013-03-31 09:55:00,
2013-03-31 05:05:00,48.7,44.7,29.96,NW,315,0.4,1.3,86,0.00,,OVC075,0.00,VWS V14.01,2013-03-31 10:05:00,
2013-03-31 05:10:00,48.7,44.4,29.96,NNW,338,2.0,2.0,85,0.00,,OVC075,0.00,VWS V14.01,2013-03-31 10:10:00,
2013-03-31 05:15:00,48.5,43.9,29.96,North,0,0.9,2.0,84,0.00,,FEW075,0.00,VWS V14.01,2013-03-31 10:15:00,
2013-03-31 05:20:00,48.4,43.8,29.97,North,0,0.4,0.9,84,0.00,,FEW075,0.00,VWS V14.01,2013-03-31 10:20:00,
2013-03-31 05:25:00,48.4,43.5,29.96,North,0,1.3,1.3,83,0.00,,FEW075,0.00,VWS V14.01,2013-03-31 10:25:00,
2013-03-31 05:30:00,48.4,43.5,29.97,North,0,0.4,1.3,83,0.00,,FEW075,0.00,VWS V14.01,2013-03-31 10:30:00,
2013-03-31 05:35:00,48.0,42.8,29.97,North,0,0.9,1.1,82,0.00,,FEW075,0.00,VWS V14.01,2013-03-31 10:35:00,
2013-03-31 05:40:00,48.0,42.8,29.97,North,0,0.0,0.9,82,0.00,,FEW075,0.00,VWS V14.01,2013-03-31 10:40:00,
2013-03-31 05:45:00,47.6,42.4,29.97,North,0,0.0,0.2,82,0.00,,FEW075,0.00,VWS V14.01,2013-03-31 10:45:00,
2013-03-31 05:50:00,47.6,42.4,29.97,North,0,0.0,1.3,82,0.00,,FEW075,0.00,VWS V14.01,2013-03-31 10:50:00,
2013-03-31 05:55:00,47.5,42.3,29.97,NNW,338,0.0,0.4,82,0.00,,FEW075,0.00,VWS V14.01,2013-03-31 10:55:00,
2013-03-31 06:05:00,46.9,41.4,29.97,NNW,338,0.7,0.9,81,0.00,,FEW075,0.00,VWS V14.01,2013-03-31 11:05:00,
2013-03-31 06:10:00,46.7,41.2,29.96,NW,315,0.9,0.9,81,0.00,,FEW075,0.00,VWS V14.01,2013-03-31 11:10:00,
2013-03-31 06:15:00,46.4,40.9,29.97,NNW,338,0.0,0.9,81,0.00,,FEW075,0.00,VWS V14.01,2013-03-31 11:15:00,
2013-03-31 06:20:00,46.0,40.5,29.97,NNW,338,0.0,0.0,81,0.00,,FEW075,0.00,VWS V14.01,2013-03-31 11:20:00,
2013-03-31 06:25:00,45.7,39.9,29.97,NNW,338,0.0,0.0,80,0.00,,FEW075,0.00,VWS V14.01,2013-03-31 11:25:00,
2013-03-31 06:30:00,45.5,39.7,29.97,NNW,338,0.0,0.0,80,0.00,,FEW090,0.00,VWS V14.01,2013-03-31 11:30:00,
2013-03-31 06:35:00,45.1,39.6,29.97,NNW,338,0.0,0.0,81,0.00,,FEW090,0.00,VWS V14.01,2013-03-31 11:35:00,
2013-03-31 06:40:00,44.8,39.3,29.97,NNW,338,0.0,0.0,81,0.00,,FEW090,0.00,VWS V14.01,2013-03-31 11:40:00,
2013-03-31 06:45:00,44.4,38.9,29.97,NNW,338,0.0,0.0,81,0.00,,FEW090,0.00,VWS V14.01,2013-03-31 11:45:00,
2013-03-31 06:50:00,44.2,38.8,29.97,North,0,0.0,0.0,81,0.00,,FEW090,0.00,VWS V14.01,2013-03-31 11:50:00,
2013-03-31 06:55:00,44.0,38.5,29.97,North,0,0.0,0.0,81,0.00,,FEW090,0.00,VWS V14.01,2013-03-31 11:55:00,
2013-03-31 07:05:00,43.5,38.1,29.98,NNW,338,0.0,0.0,81,0.00,,FEW090,0.00,VWS V14.01,2013-03-31 12:05:00,
2013-03-31 07:10:00,43.3,38.2,29.98,NNW,338,0.0,0.0,82,0.00,,FEW090,0.00,VWS V14.01,2013-03-31 12:10:00,
2013-03-31 07:15:00,43.1,38.0,29.98,North,0,0.0,0.0,82,0.00,,FEW090,0.00,VWS V14.01,2013-03-31 12:15:00,
2013-03-31 07:20:00,43.1,38.0,29.98,North,0,0.0,0.0,82,0.00,,FEW090,0.00,VWS V14.01,2013-03-31 12:20:00,
2013-03-31 07:29:00,43.0,38.2,29.98,North,0,0.0,0.0,83,0.00,,CLR,0.00,VWS V14.01,2013-03-31 12:29:00,
2013-03-31 07:35:00,43.1,38.3,29.98,North,0,0.0,0.0,83,0.00,,CLR,0.00,VWS V14.01,2013-03-31 12:35:00,
2013-03-31 07:40:00,43.1,38.3,29.99,North,0,0.0,0.0,83,0.00,,CLR,0.00,VWS V14.01,2013-03-31 12:40:00,
2013-03-31 07:45:00,43.1,38.6,29.99,North,0,0.0,0.0,84,0.00,,CLR,0.00,VWS V14.01,2013-03-31 12:45:00,
2013-03-31 07:50:00,43.3,38.8,29.99,North,0,0.0,0.0,84,0.00,,CLR,0.00,VWS V14.01,2013-03-31 12:50:00,
2013-03-31 07:55:00,43.3,38.8,29.98,North,0,0.0,0.0,84,0.00,,CLR,0.00,VWS V14.01,2013-03-31 12:55:00,
2013-03-31 08:05:00,43.7,39.5,29.98,NNW,338,0.0,0.0,85,0.00,,CLR,0.00,VWS V14.01,2013-03-31 13:05:00,
2013-03-31 08:10:00,44.2,40.0,29.98,NNW,338,0.0,0.0,85,0.00,,CLR,0.00,VWS V14.01,2013-03-31 13:10:00,
2013-03-31 08:15:00,44.8,40.6,29.98,North,0,0.0,0.0,85,0.00,,BKN095,0.00,VWS V14.01,2013-03-31 13:15:00,
2013-03-31 08:20:00,45.5,41.3,29.98,North,0,0.0,0.2,85,0.00,,BKN095,0.00,VWS V14.01,2013-03-31 13:20:00,
2013-03-31 08:29:00,46.9,42.3,29.97,NW,315,0.0,0.7,84,0.00,,BKN095,0.00,VWS V14.01,2013-03-31 13:29:00,
2013-03-31 08:35:00,47.6,43.0,29.97,North,0,0.0,0.9,84,0.00,,BKN095,0.00,VWS V14.01,2013-03-31 13:35:00,
2013-03-31 08:40:00,48.4,43.5,29.97,North,0,0.0,0.2,83,0.00,,BKN095,0.00,VWS V14.01,2013-03-31 13:40:00,
2013-03-31 08:45:00,49.4,44.1,29.97,SE,135,0.2,0.4,82,0.00,,BKN095,0.00,VWS V14.01,2013-03-31 13:45:00,
2013-03-31 08:50:00,50.5,44.9,29.97,NE,45,0.0,0.7,81,0.00,,BKN095,0.00,VWS V14.01,2013-03-31 13:50:00,
2013-03-31 08:55:00,51.6,45.6,29.97,NNE,22,0.0,0.0,80,0.00,,BKN095,0.00,VWS V14.01,2013-03-31 13:55:00,
2013-03-31 09:05:00,53.4,47.1,29.97,NE,45,0.4,2.0,79,0.00,,BKN095,0.00,VWS V14.01,2013-03-31 14:05:00,
2013-03-31 09:10:00,54.1,47.1,29.97,NNW,338,0.7,0.7,77,0.00,,BKN095,0.00,VWS V14.01,2013-03-31 14:10:00,
2013-03-31 09:15:00,54.7,46.9,29.97,NE,45,0.0,0.7,75,0.00,,CLR,0.00,VWS V14.01,2013-03-31 14:15:00,
2013-03-31 09:20:00,54.8,46.7,29.97,ENE,68,0.0,1.1,74,0.00,,CLR,0.00,VWS V14.01,2013-03-31 14:20:00,
2013-03-31 09:29:00,55.4,46.5,29.97,NW,315,0.0,0.7,72,0.00,,CLR,0.00,VWS V14.01,2013-03-31 14:29:00,
2013-03-31 09:35:00,56.1,46.8,29.96,North,0,0.0,0.4,71,0.00,,CLR,0.00,VWS V14.01,2013-03-31 14:35:00,
2013-03-31 09:40:00,56.8,47.1,29.96,NNW,338,0.9,0.9,70,0.00,,CLR,0.00,VWS V14.01,2013-03-31 14:40:00,
2013-03-31 09:45:00,57.0,46.9,29.96,NNW,338,0.4,1.8,69,0.00,,CLR,0.00,VWS V14.01,2013-03-31 14:45:00,
2013-03-31 09:55:00,57.5,47.0,29.97,NNE,22,0.0,2.5,68,0.00,,CLR,0.00,VWS V14.01,2013-03-31 14:55:00,
2013-03-31 10:05:00,58.4,47.1,29.97,ENE,68,0.0,1.3,66,0.00,,CLR,0.00,VWS V14.01,2013-03-31 15:05:00,
2013-03-31 10:10:00,59.0,47.7,29.97,NNW,338,1.6,2.2,66,0.00,,CLR,0.00,VWS V14.01,2013-03-31 15:10:00,
2013-03-31 10:15:00,59.5,47.7,29.97,ENE,68,1.1,2.7,65,0.00,,CLR,0.00,VWS V14.01,2013-03-31 15:15:00,
2013-03-31 10:20:00,60.1,47.9,29.97,NW,315,1.1,2.9,64,0.00,,CLR,0.00,VWS V14.01,2013-03-31 15:20:00,
2013-03-31 10:29:00,60.4,47.8,29.97,North,0,1.1,2.2,63,0.00,,CLR,0.00,VWS V14.01,2013-03-31 15:29:00,
2013-03-31 10:35:00,60.6,47.1,29.97,NNE,22,0.2,0.9,61,0.00,,CLR,0.00,VWS V14.01,2013-03-31 15:35:00,
2013-03-31 10:40:00,60.6,46.7,29.97,North,0,3.6,3.6,60,0.00,,CLR,0.00,VWS V14.01,2013-03-31 15:40:00,
2013-03-31 10:45:00,61.0,46.6,29.97,NNE,22,0.9,3.6,59,0.00,,CLR,0.00,VWS V14.01,2013-03-31 15:45:00,
2013-03-31 10:50:00,61.3,46.9,29.96,North,0,0.0,3.4,59,0.00,,CLR,0.00,VWS V14.01,2013-03-31 15:50:00,
2013-03-31 10:55:00,61.5,46.6,29.97,NNE,22,0.7,1.8,58,0.00,,CLR,0.00,VWS V14.01,2013-03-31 15:55:00,
2013-03-31 11:05:00,61.7,46.3,29.96,NNW,338,2.0,2.5,57,0.00,,CLR,0.00,VWS V14.01,2013-03-31 16:05:00,
2013-03-31 11:10:00,62.0,46.1,29.96,NE,45,1.8,2.2,56,0.00,,CLR,0.00,VWS V14.01,2013-03-31 16:10:00,
2013-03-31 11:15:00,62.4,46.0,29.96,North,0,0.9,2.5,55,0.00,,CLR,0.00,VWS V14.01,2013-03-31 16:15:00,
2013-03-31 11:20:00,62.8,46.4,29.96,NE,45,1.1,1.8,55,0.00,,CLR,0.00,VWS V14.01,2013-03-31 16:20:00,
2013-03-31 11:30:00,62.9,46.0,29.96,ENE,68,0.9,1.1,54,0.00,,CLR,0.00,VWS V14.01,2013-03-31 16:30:00,
2013-03-31 11:35:00,63.5,46.6,29.96,SSW,202,2.5,2.9,54,0.00,,CLR,0.00,VWS V14.01,2013-03-31 16:35:00,
2013-03-31 11:40:00,63.8,46.8,29.96,North,0,1.8,2.5,54,0.00,,CLR,0.00,VWS V14.01,2013-03-31 16:40:00,
2013-03-31 11:50:00,64.6,47.1,29.96,North,0,1.6,3.4,53,0.00,,CLR,0.00,VWS V14.01,2013-03-31 16:50:00,
2013-03-31 11:55:00,64.6,46.1,29.96,NNW,338,1.8,6.0,51,0.00,,CLR,0.00,VWS V14.01,2013-03-31 16:55:00,
2013-03-31 12:05:00,65.3,46.7,29.96,NNW,338,1.3,4.0,51,0.00,,CLR,0.00,VWS V14.01,2013-03-31 17:05:00,
2013-03-31 12:10:00,65.3,46.2,29.96,NNW,338,4.5,5.4,50,0.00,,CLR,0.00,VWS V14.01,2013-03-31 17:10:00,
2013-03-31 12:15:00,65.1,45.5,29.96,NE,45,1.1,4.7,49,0.00,,CLR,0.00,VWS V14.01,2013-03-31 17:15:00,
2013-03-31 12:20:00,65.1,46.0,29.97,NNW,338,1.1,4.0,50,0.00,,CLR,0.00,VWS V14.01,2013-03-31 17:20:00,
2013-03-31 12:30:00,65.3,46.2,29.97,WNW,292,4.5,4.5,50,0.00,,CLR,0.00,VWS V14.01,2013-03-31 17:30:00,
2013-03-31 12:35:00,65.6,46.5,29.97,West,270,2.2,2.2,50,0.00,,CLR,0.00,VWS V14.01,2013-03-31 17:35:00,
2013-03-31 12:40:00,65.5,45.8,29.97,NE,45,0.4,2.9,49,0.00,,CLR,0.00,VWS V14.01,2013-03-31 17:40:00,
2013-03-31 12:45:00,64.9,45.3,29.97,WNW,292,4.0,4.0,49,0.00,,CLR,0.00,VWS V14.01,2013-03-31 17:45:00,
2013-03-31 12:50:00,64.9,45.3,29.97,North,0,4.7,4.7,49,0.00,,CLR,0.00,VWS V14.01,2013-03-31 17:50:00,
2013-03-31 12:55:00,65.3,45.7,29.97,NW,315,1.6,4.7,49,0.00,,CLR,0.00,VWS V14.01,2013-03-31 17:55:00,
2013-03-31 13:05:00,66.0,45.8,29.97,North,0,4.5,4.5,48,0.00,,CLR,0.00,VWS V14.01,2013-03-31 18:05:00,
2013-03-31 13:15:00,65.6,45.4,29.97,ENE,68,1.1,3.1,48,0.00,,FEW050,0.00,VWS V14.01,2013-03-31 18:15:00,
2013-03-31 13:20:00,65.8,45.6,29.97,NNE,22,0.9,2.9,48,0.00,,FEW050,0.00,VWS V14.01,2013-03-31 18:20:00,
2013-03-31 13:30:00,65.6,45.4,29.97,ENE,68,1.1,1.1,48,0.00,,FEW050,0.00,VWS V14.01,2013-03-31 18:30:00,
2013-03-31 13:35:00,65.3,45.1,29.97,NNW,338,2.5,4.0,48,0.00,,FEW050,0.00,VWS V14.01,2013-03-31 18:35:00,
2013-03-31 13:40:00,65.3,44.6,29.97,NNW,338,3.6,3.6,47,0.00,,FEW050,0.00,VWS V14.01,2013-03-31 18:40:00,
2013-03-31 13:45:00,65.5,44.8,29.97,West,270,1.1,1.3,47,0.00,,FEW050,0.00,VWS V14.01,2013-03-31 18:45:00,
2013-03-31 13:50:00,65.6,44.8,29.97,NNE,22,1.1,3.8,47,0.00,,FEW050,0.00,VWS V14.01,2013-03-31 18:50:00,
2013-03-31 13:55:00,65.6,44.8,29.96,NE,45,0.9,1.6,47,0.00,,FEW050,0.00,VWS V14.01,2013-03-31 18:55:00,
2013-03-31 14:05:00,65.5,44.2,29.96,ENE,68,0.4,1.1,46,0.00,,FEW050,0.00,VWS V14.01,2013-03-31 19:05:00,
2013-03-31 14:10:00,65.3,44.6,29.96,ENE,68,0.7,2.7,47,0.00,,FEW050,0.00,VWS V14.01,2013-03-31 19:10:00,
2013-03-31 14:15:00,65.3,44.0,29.97,WNW,292,2.9,2.9,46,0.00,,CLR,0.00,VWS V14.01,2013-03-31 19:15:00,
2013-03-31 14:20:00,64.9,43.7,29.96,NNE,22,0.4,3.4,46,0.00,,CLR,0.00,VWS V14.01,2013-03-31 19:20:00,
2013-03-31 14:30:00,64.7,44.0,29.96,NE,45,4.0,4.0,47,0.00,,CLR,0.00,VWS V14.01,2013-03-31 19:30:00,
2013-03-31 14:35:00,65.1,43.8,29.96,ENE,68,1.3,4.0,46,0.00,,CLR,0.00,VWS V14.01,2013-03-31 19:35:00,
2013-03-31 14:40:00,65.3,44.0,29.96,NW,315,3.4,3.4,46,0.00,,CLR,0.00,VWS V14.01,2013-03-31 19:40:00,
2013-03-31 14:45:00,65.3,44.0,29.96,North,0,3.4,3.6,46,0.00,,CLR,0.00,VWS V14.01,2013-03-31 19:45:00,
2013-03-31 14:50:00,65.5,43.6,29.96,North,0,2.7,5.1,45,0.00,,CLR,0.00,VWS V14.01,2013-03-31 19:50:00,
2013-03-31 14:55:00,65.5,43.6,29.96,NNE,22,1.1,3.1,45,0.00,,CLR,0.00,VWS V14.01,2013-03-31 19:55:00,
2013-03-31 15:05:00,64.9,43.1,29.96,West,270,3.1,3.1,45,0.00,,CLR,0.00,VWS V14.01,2013-03-31 20:05:00,
2013-03-31 15:10:00,64.9,42.5,29.96,North,0,0.7,3.1,44,0.00,,CLR,0.00,VWS V14.01,2013-03-31 20:10:00,
2013-03-31 15:15:00,65.1,43.3,29.96,North,0,1.1,2.9,45,0.00,,SCT055,0.00,VWS V14.01,2013-03-31 20:15:00,
2013-03-31 15:20:00,64.9,42.5,29.96,NW,315,3.1,3.1,44,0.00,,SCT055,0.00,VWS V14.01,2013-03-31 20:20:00,
2013-03-31 15:30:00,64.9,41.9,29.96,NE,45,0.4,3.4,43,0.00,,SCT055,0.00,VWS V14.01,2013-03-31 20:30:00,
2013-03-31 15:35:00,64.7,42.3,29.96,NNW,338,4.7,4.7,44,0.00,,SCT055,0.00,VWS V14.01,2013-03-31 20:35:00,
2013-03-31 15:40:00,64.7,42.3,29.96,ENE,68,0.7,4.7,44,0.00,,SCT055,0.00,VWS V14.01,2013-03-31 20:40:00,
2013-03-31 15:45:00,64.7,41.7,29.96,NW,315,4.3,4.3,43,0.00,,SCT055,0.00,VWS V14.01,2013-03-31 20:45:00,
2013-03-31 15:50:00,64.6,41.6,29.97,WNW,292,2.5,4.3,43,0.00,,SCT055,0.00,VWS V14.01,2013-03-31 20:50:00,
2013-03-31 15:55:00,63.8,40.9,29.97,North,0,2.7,2.7,43,0.00,,SCT055,0.00,VWS V14.01,2013-03-31 20:55:00,
2013-03-31 16:00:00,63.7,40.8,29.97,NE,45,0.7,0.7,43,0.00,,SCT055,0.00,VWS V14.01,2013-03-31 21:00:00,
2013-03-31 16:10:00,63.5,40.0,29.97,North,0,0.4,2.5,42,0.00,,SCT055,0.00,VWS V14.01,2013-03-31 21:10:00,
2013-03-31 16:15:00,63.3,39.8,29.97,NW,315,2.0,2.0,42,0.00,,BKN060,0.00,VWS V14.01,2013-03-31 21:15:00,
2013-03-31 16:20:00,63.3,39.2,29.97,North,0,1.3,3.6,41,0.00,,BKN060,0.00,VWS V14.01,2013-03-31 21:20:00,
2013-03-31 16:30:00,62.4,37.8,29.96,NNE,22,2.5,7.4,40,0.00,,BKN060,0.00,VWS V14.01,2013-03-31 21:30:00,
2013-03-31 16:35:00,62.4,37.8,29.96,East,90,1.6,2.7,40,0.00,,BKN060,0.00,VWS V14.01,2013-03-31 21:35:00,
2013-03-31 16:40:00,62.4,37.8,29.96,NW,315,6.0,6.0,40,0.00,,BKN060,0.00,VWS V14.01,2013-03-31 21:40:00,
2013-03-31 16:45:00,62.4,37.8,29.96,NW,315,0.9,6.0,40,0.00,,BKN060,0.00,VWS V14.01,2013-03-31 21:45:00,
2013-03-31 16:50:00,62.4,37.8,29.96,ENE,68,0.9,1.6,40,0.00,,BKN060,0.00,VWS V14.01,2013-03-31 21:50:00,
2013-03-31 16:55:00,62.2,37.6,29.97,ENE,68,2.0,2.0,40,0.00,,BKN060,0.00,VWS V14.01,2013-03-31 21:55:00,
2013-03-31 17:00:00,62.2,37.6,29.97,WNW,292,3.8,3.8,40,0.00,,BKN060,0.00,VWS V14.01,2013-03-31 22:00:00,
2013-03-31 17:10:00,62.0,36.8,29.96,West,270,3.4,3.4,39,0.00,,BKN060,0.00,VWS V14.01,2013-03-31 22:10:00,
2013-03-31 17:15:00,62.0,37.4,29.96,NNE,22,0.7,3.4,40,0.00,,CLR,0.00,VWS V14.01,2013-03-31 22:15:00,
2013-03-31 17:20:00,61.7,36.5,29.96,NNE,22,1.1,1.6,39,0.00,,CLR,0.00,VWS V14.01,2013-03-31 22:20:00,
2013-03-31 17:30:00,61.5,36.3,29.96,ENE,68,0.4,1.8,39,0.00,,CLR,0.00,VWS V14.01,2013-03-31 22:30:00,
2013-03-31 17:35:00,61.3,36.2,29.96,WSW,248,4.0,4.0,39,0.00,,CLR,0.00,VWS V14.01,2013-03-31 22:35:00,
2013-03-31 17:40:00,61.3,36.2,29.96,NNW,338,2.9,4.0,39,0.00,,CLR,0.00,VWS V14.01,2013-03-31 22:40:00,
2013-03-31 17:45:00,61.1,36.0,29.96,NW,315,1.1,2.9,39,0.00,,CLR,0.00,VWS V14.01,2013-03-31 22:45:00,
2013-03-31 17:50:00,61.0,35.9,29.96,NE,45,0.4,1.6,39,0.00,,CLR,0.00,VWS V14.01,2013-03-31 22:50:00,
2013-03-31 17:55:00,61.0,35.9,29.96,NNW,338,3.8,3.8,39,0.00,,CLR,0.00,VWS V14.01,2013-03-31 22:55:00,
2013-03-31 18:00:00,60.8,35.7,29.96,NE,45,1.3,1.3,39,0.00,,CLR,0.00,VWS V14.01,2013-03-31 23:00:00,
2013-03-31 18:10:00,60.4,35.3,29.96,North,0,0.4,1.6,39,0.00,,CLR,0.00,VWS V14.01,2013-03-31 23:10:00,
2013-03-31 18:15:00,60.2,35.2,29.97,North,0,0.0,1.6,39,0.00,,CLR,0.00,VWS V14.01,2013-03-31 23:15:00,
2013-03-31 18:20:00,60.1,35.1,29.97,NE,45,1.1,1.1,39,0.00,,CLR,0.00,VWS V14.01,2013-03-31 23:20:00,
2013-03-31 18:30:00,59.9,34.9,29.97,North,0,0.0,4.0,39,0.00,,CLR,0.00,VWS V14.01,2013-03-31 23:30:00,
2013-03-31 18:35:00,59.9,34.2,29.97,NNW,338,1.1,1.8,38,0.00,,CLR,0.00,VWS V14.01,2013-03-31 23:35:00,
2013-03-31 18:40:00,59.7,34.7,29.97,NE,45,1.1,1.6,39,0.00,,CLR,0.00,VWS V14.01,2013-03-31 23:40:00,
2013-03-31 18:45:00,59.5,33.9,29.97,WNW,292,0.0,1.1,38,0.00,,CLR,0.00,VWS V14.01,2013-03-31 23:45:00,
2013-03-31 18:50:00,59.2,33.6,29.97,NNE,22,1.3,1.3,38,0.00,,CLR,0.00,VWS V14.01,2013-03-31 23:50:00,
2013-03-31 18:55:00,58.8,33.3,29.97,North,0,0.2,1.3,38,0.00,,CLR,0.00,VWS V14.01,2013-03-31 23:55:00,
2013-03-31 19:01:00,58.4,32.9,29.97,NW,315,0.0,0.0,38,0.00,,CLR,0.00,VWS V14.01,2013-04-01 00:01:00,
2013-03-31 19:10:00,57.9,32.5,29.97,NW,315,0.0,0.7,38,0.00,,CLR,0.00,VWS V14.01,2013-04-01 00:10:00,
2013-03-31 19:15:00,57.7,32.3,29.98,NE,45,0.0,0.4,38,0.00,,CLR,0.00,VWS V14.01,2013-04-01 00:15:00,
2013-03-31 19:20:00,57.4,32.0,29.98,North,0,0.4,0.4,38,0.00,,CLR,0.00,VWS V14.01,2013-04-01 00:20:00,
2013-03-31 19:25:00,57.0,31.7,29.97,North,0,0.4,1.1,38,0.00,,CLR,0.00,VWS V14.01,2013-04-01 00:25:00,
2013-03-31 19:30:00,56.8,32.1,29.98,North,0,0.0,0.4,39,0.00,,CLR,0.00,VWS V14.01,2013-04-01 00:30:00,
2013-03-31 19:35:00,56.6,32.0,29.98,NNW,338,1.1,1.1,39,0.00,,CLR,0.00,VWS V14.01,2013-04-01 00:35:00,
2013-03-31 19:40:00,56.3,31.7,29.97,North,0,0.0,1.1,39,0.00,,CLR,0.00,VWS V14.01,2013-04-01 00:40:00,
2013-03-31 19:45:00,56.1,31.5,29.97,North,0,0.0,0.4,39,0.00,,CLR,0.00,VWS V14.01,2013-04-01 00:45:00,
2013-03-31 19:50:00,55.7,31.8,29.97,North,0,0.0,0.4,40,0.00,,CLR,0.00,VWS V14.01,2013-04-01 00:50:00,
2013-03-31 19:55:00,55.6,31.7,29.97,North,0,0.0,0.0,40,0.00,,CLR,0.00,VWS V14.01,2013-04-01 00:55:00,
2013-03-31 20:05:00,54.7,30.9,29.97,NNW,338,0.0,0.0,40,0.00,,CLR,0.00,VWS V14.01,2013-04-01 01:05:00,
2013-03-31 20:10:00,54.3,31.1,29.97,NNW,338,0.0,0.0,41,0.00,,CLR,0.00,VWS V14.01,2013-04-01 01:10:00,
2013-03-31 20:15:00,53.8,30.7,29.97,NNW,338,0.0,0.0,41,0.00,,CLR,0.00,VWS V14.01,2013-04-01 01:15:00,
2013-03-31 20:20:00,53.4,30.9,29.97,NNW,338,0.0,0.0,42,0.00,,CLR,0.00,VWS V14.01,2013-04-01 01:20:00,
2013-03-31 20:25:00,52.7,30.9,29.97,NNW,338,0.0,0.0,43,0.00,,CLR,0.00,VWS V14.01,2013-04-01 01:25:00,
2013-03-31 20:30:00,52.3,30.5,29.97,NNW,338,0.0,0.0,43,0.00,,CLR,0.00,VWS V14.01,2013-04-01 01:30:00,
2013-03-31 20:35:00,51.8,30.0,29.97,NNW,338,0.0,0.0,43,0.00,,CLR,0.00,VWS V14.01,2013-04-01 01:35:00,
2013-03-31 20:40:00,51.2,30.0,29.97,NNW,338,0.0,0.0,44,0.00,,CLR,0.00,VWS V14.01,2013-04-01 01:40:00,
2013-03-31 20:45:00,50.7,29.6,29.97,NNW,338,0.0,0.0,44,0.00,,CLR,0.00,VWS V14.01,2013-04-01 01:45:00,
2013-03-31 20:50:00,50.2,29.7,29.97,NNW,338,0.0,0.0,45,0.00,,CLR,0.00,VWS V14.01,2013-04-01 01:50:00,
2013-03-31 20:55:00,49.8,28.8,29.97,NNW,338,0.0,0.0,44,0.00,,CLR,0.00,VWS V14.01,2013-04-01 01:55:00,
2013-03-31 21:02:00,49.4,29.0,29.97,NNW,338,0.0,0.0,45,0.00,,CLR,0.00,VWS V14.01,2013-04-01 02:02:00,
2013-03-31 21:10:00,48.7,28.9,29.97,NNW,338,0.0,0.0,46,0.00,,CLR,0.00,VWS V14.01,2013-04-01 02:10:00,
2013-03-31 21:15:00,48.5,29.2,29.97,NNW,338,0.0,0.0,47,0.00,,CLR,0.00,VWS V14.01,2013-04-01 02:15:00,
2013-03-31 21:20:00,48.4,29.1,29.98,NNW,338,0.0,0.0,47,0.00,,CLR,0.00,VWS V14.01,2013-04-01 02:20:00,
2013-03-31 21:25:00,48.0,29.3,29.98,NNW,338,0.0,0.0,48,0.00,,CLR,0.00,VWS V14.01,2013-04-01 02:25:00,
2013-03-31 21:32:00,47.6,28.9,29.98,NNW,338,0.0,0.0,48,0.00,,CLR,0.00,VWS V14.01,2013-04-01 02:32:00,
2013-03-31 21:40:00,47.1,28.9,29.98,NNW,338,0.0,0.0,49,0.00,,CLR,0.00,VWS V14.01,2013-04-01 02:40:00,
2013-03-31 21:45:00,46.9,29.2,29.98,NNW,338,0.0,0.0,50,0.00,,CLR,0.00,VWS V14.01,2013-04-01 02:45:00,
2013-03-31 21:50:00,46.6,29.0,29.98,NNW,338,0.0,0.7,50,0.00,,CLR,0.00,VWS V14.01,2013-04-01 02:50:00,
2013-03-31 21:55:00,46.4,29.3,29.97,NNW,338,0.0,0.0,51,0.00,,CLR,0.00,VWS V14.01,2013-04-01 02:55:00,
2013-03-31 22:02:00,46.2,29.1,29.98,NNW,338,0.0,0.0,51,0.00,,CLR,0.00,VWS V14.01,2013-04-01 03:02:00,
2013-03-31 22:10:00,45.7,29.1,29.98,NNW,338,0.0,0.0,52,0.00,,CLR,0.00,VWS V14.01,2013-04-01 03:10:00,
2013-03-31 22:15:00,45.5,29.4,29.97,ENE,68,0.0,0.0,53,0.00,,CLR,0.00,VWS V14.01,2013-04-01 03:15:00,
2013-03-31 22:22:00,44.9,28.8,29.97,ENE,68,0.7,1.1,53,0.00,,CLR,0.00,VWS V14.01,2013-04-01 03:22:00,
2013-03-31 22:30:00,44.6,29.0,29.97,NNE,22,0.0,0.0,54,0.00,,CLR,0.00,VWS V14.01,2013-04-01 03:30:00,
2013-03-31 22:35:00,44.4,28.8,29.98,North,0,0.0,0.0,54,0.00,,CLR,0.00,VWS V14.01,2013-04-01 03:35:00,
2013-03-31 22:40:00,44.4,29.3,29.98,North,0,0.0,0.0,55,0.00,,CLR,0.00,VWS V14.01,2013-04-01 03:40:00,
2013-03-31 22:45:00,44.0,28.9,29.97,North,0,0.0,0.0,55,0.00,,CLR,0.00,VWS V14.01,2013-04-01 03:45:00,
2013-03-31 22:50:00,44.0,28.9,29.98,North,0,0.0,0.4,55,0.00,,CLR,0.00,VWS V14.01,2013-04-01 03:50:00,
2013-03-31 22:55:00,43.9,29.2,29.98,North,0,0.0,0.0,56,0.00,,CLR,0.00,VWS V14.01,2013-04-01 03:55:00,
2013-03-31 23:00:00,43.7,29.0,29.98,North,0,0.0,0.0,56,0.00,,CLR,0.00,VWS V14.01,2013-04-01 04:00:00,
2013-03-31 23:02:00,43.7,29.0,29.99,North,0,0.0,0.0,56,0.00,,CLR,0.00,VWS V14.01,2013-04-01 04:02:00,
2013-03-31 23:05:00,43.5,28.9,29.99,NNW,338,0.0,0.2,56,0.00,,CLR,0.00,VWS V14.01,2013-04-01 04:05:00,
2013-03-31 23:10:00,43.3,29.1,29.99,NNW,338,0.0,0.0,57,0.00,,CLR,0.00,VWS V14.01,2013-04-01 04:10:00,
2013-03-31 23:15:00,43.1,28.9,29.99,ENE,68,0.0,0.0,57,0.00,,CLR,0.00,VWS V14.01,2013-04-01 04:15:00,
2013-03-31 23:20:00,43.0,28.8,29.99,ENE,68,0.0,0.0,57,0.00,,CLR,0.00,VWS V14.01,2013-04-01 04:20:00,
2013-03-31 23:25:00,43.0,28.8,29.99,ENE,68,0.0,0.0,57,0.00,,CLR,0.00,VWS V14.01,2013-04-01 04:25:00,
2013-03-31 23:30:00,42.8,29.1,29.99,NW,315,0.0,0.2,58,0.00,,CLR,0.00,VWS V14.01,2013-04-01 04:30:00,
2013-03-31 23:40:00,42.4,28.7,29.99,NNW,338,0.0,0.0,58,0.00,,CLR,0.00,VWS V14.01,2013-04-01 04:40:00,
2013-03-31 23:45:00,42.2,28.5,29.99,NNW,338,0.0,0.0,58,0.00,,CLR,0.00,VWS V14.01,2013-04-01 04:45:00,
2013-03-31 23:50:00,42.1,28.8,29.99,North,0,0.0,0.0,59,0.00,,CLR,0.00,VWS V14.01,2013-04-01 04:50:00,
2013-03-31 23:55:00,42.1,28.8,29.99,North,0,0.0,0.0,59,0.00,,CLR,0.00,VWS V14.01,2013-04-01 04:55:00,